When you browse on this site, cookies collect data to enhance your experience and personalize the content and advertising you see.
Visit our Privacy Policy to learn more. By continuing to use the site, you agree to this use of cookies and data.
  • In United Kingdom
  • List of Countries
  • For 7 days
  • Water Temperature
  • Weather Map
  • Weather Widgets
  • user-avatar
    Login

    Hourly Weather Townsville

    Today, 16 December, Monday

    Time Temperature Precipitation Wind Pressure Humidity
    00:00 +26°C° 0 mm 3 mps 751 mmHg 86%
    01:00 +26°C° 0 mm 3 mps 751 mmHg 88%
    02:00 +26°C° 0 mm 3 mps 750 mmHg 89%
    03:00 +26°C° 0 mm 3 mps 750 mmHg 89%
    04:00 +26°C° 0 mm 3 mps 750 mmHg 91%
    05:00 +27°C° 0 mm 3 mps 751 mmHg 87%
    06:00 +27°C° 0 mm 3 mps 751 mmHg 82%
    07:00 +28°C° 0 mm 3 mps 751 mmHg 78%
    08:00 +30°C° 0 mm 3 mps 751 mmHg 70%
    09:00 +32°C° 0 mm 4 mps 751 mmHg 62%
    10:00 +34°C° 0 mm 4 mps 751 mmHg 53%
    11:00 +35°C° 0 mm 3 mps 750 mmHg 48%
    12:00 +37°C° 0 mm 3 mps 750 mmHg 42%
    13:00 +38°C° 0 mm 3 mps 749 mmHg 37%
    14:00 +37°C° 0 mm 4 mps 749 mmHg 40%
    15:00 +36°C° 0 mm 4 mps 748 mmHg 44%
    16:00 +36°C° 0 mm 4 mps 748 mmHg 45%
    17:00 +34°C° 0 mm 4 mps 749 mmHg 55%
    18:00 +30°C° 0 mm 3 mps 749 mmHg 65%
    19:00 +28°C° 0 mm 3 mps 749 mmHg 75%
    20:00 +27°C° 0 mm 2 mps 750 mmHg 78%
    21:00 +27°C° 0 mm 2 mps 750 mmHg 82%
    22:00 +26°C° 0 mm 1 mps 751 mmHg 85%
    23:00 +26°C° 0 mm 2 mps 750 mmHg 86%

    Tomorrow, 17 December, Tuesday

    Time Temperature Precipitation Wind Pressure Humidity
    00:00 +26°C° 0 mm 3 mps 750 mmHg 87%
    01:00 +26°C° 0 mm 3 mps 750 mmHg 88%
    02:00 +26°C° 0 mm 3 mps 749 mmHg 90%
    03:00 +25°C° 0 mm 3 mps 749 mmHg 91%
    04:00 +25°C° 0 mm 3 mps 749 mmHg 93%
    05:00 +26°C° 0 mm 2 mps 749 mmHg 87%
    06:00 +27°C° 0 mm 2 mps 750 mmHg 82%
    07:00 +28°C° 0 mm 2 mps 751 mmHg 76%
    08:00 +30°C° 0 mm 2 mps 751 mmHg 66%
    09:00 +32°C° 0 mm 2 mps 751 mmHg 56%
    10:00 +35°C° 0 mm 3 mps 751 mmHg 46%
    11:00 +35°C° 0 mm 3 mps 751 mmHg 47%
    12:00 +36°C° 0 mm 4 mps 750 mmHg 48%
    13:00 +36°C° 0 mm 4 mps 750 mmHg 48%
    14:00 +35°C° 0 mm 4 mps 749 mmHg 51%
    15:00 +34°C° 0 mm 4 mps 749 mmHg 54%
    16:00 +33°C° 0 mm 4 mps 749 mmHg 56%
    17:00 +32°C° 0 mm 4 mps 749 mmHg 63%
    18:00 +29°C° 0 mm 4 mps 750 mmHg 69%
    19:00 +28°C° 0 mm 4 mps 750 mmHg 75%
    20:00 +28°C° 0 mm 4 mps 751 mmHg 77%
    21:00 +28°C° 0 mm 4 mps 752 mmHg 79%
    22:00 +27°C° 0 mm 4 mps 752 mmHg 81%
    23:00 +27°C° 0 mm 4 mps 752 mmHg 81%

    Day after tomorrow, 18 December, Wednesday

    Time Temperature Precipitation Wind Pressure Humidity
    00:00 +27°C° 0 mm 4 mps 752 mmHg 82%
    01:00 +26°C° 0 mm 4 mps 751 mmHg 83%
    02:00 +26°C° 0 mm 4 mps 751 mmHg 83%
    03:00 +26°C° 0 mm 4 mps 751 mmHg 84%
    04:00 +26°C° 0 mm 3 mps 751 mmHg 84%
    05:00 +27°C° 0.1 mm 3 mps 752 mmHg 81%
    06:00 +27°C° 0.1 mm 3 mps 752 mmHg 78%
    07:00 +28°C° 0.1 mm 3 mps 753 mmHg 75%
    08:00 +29°C° 0.1 mm 3 mps 753 mmHg 70%
    09:00 +30°C° 0.1 mm 4 mps 753 mmHg 65%
    10:00 +33°C° 0.1 mm 4 mps 753 mmHg 60%
    11:00 +33°C° 0.2 mm 5 mps 753 mmHg 59%
    12:00 +33°C° 0.2 mm 6 mps 752 mmHg 58%
    13:00 +34°C° 0.2 mm 6 mps 751 mmHg 57%
    14:00 +33°C° 0 mm 6 mps 751 mmHg 58%
    15:00 +33°C° 0 mm 7 mps 751 mmHg 58%
    16:00 +32°C° 0 mm 7 mps 750 mmHg 59%
    17:00 +30°C° 0 mm 7 mps 751 mmHg 62%
    18:00 +29°C° 0 mm 7 mps 751 mmHg 66%
    19:00 +28°C° 0 mm 7 mps 752 mmHg 69%
    20:00 +27°C° 0 mm 6 mps 752 mmHg 71%
    21:00 +26°C° 0 mm 6 mps 753 mmHg 74%
    22:00 +26°C° 0 mm 5 mps 753 mmHg 76%
    23:00 +25°C° 0 mm 5 mps 753 mmHg 78%

    19 December, Thursday

    Time Temperature Precipitation Wind Pressure Humidity
    00:00 +25°C° 0 mm 5 mps 753 mmHg 80%
    01:00 +23°C° 0 mm 5 mps 753 mmHg 82%
    02:00 +23°C° 0.1 mm 4 mps 752 mmHg 83%
    03:00 +23°C° 0.1 mm 4 mps 752 mmHg 85%
    04:00 +22°C° 0.1 mm 4 mps 752 mmHg 86%
    05:00 +23°C° 0 mm 4 mps 752 mmHg 82%
    06:00 +25°C° 0 mm 4 mps 753 mmHg 78%
    07:00 +26°C° 0 mm 4 mps 753 mmHg 74%
    08:00 +27°C° 0 mm 5 mps 753 mmHg 68%
    09:00 +28°C° 0 mm 5 mps 754 mmHg 63%
    10:00 +30°C° 0 mm 6 mps 754 mmHg 57%
    11:00 +32°C° 0 mm 6 mps 753 mmHg 53%
    12:00 +33°C° 0 mm 6 mps 753 mmHg 49%
    13:00 +34°C° 0 mm 6 mps 752 mmHg 44%
    14:00 +34°C° 0 mm 6 mps 752 mmHg 47%
    15:00 +33°C° 0 mm 6 mps 751 mmHg 49%
    16:00 +32°C° 0 mm 6 mps 751 mmHg 51%
    17:00 +30°C° 0 mm 6 mps 751 mmHg 59%
    18:00 +28°C° 0 mm 5 mps 752 mmHg 67%
    19:00 +27°C° 0 mm 5 mps 752 mmHg 75%
    20:00 +27°C° 0.1 mm 5 mps 753 mmHg 79%
    21:00 +26°C° 0.1 mm 5 mps 753 mmHg 83%
    22:00 +26°C° 0.1 mm 5 mps 754 mmHg 88%
    23:00 +25°C° 0.1 mm 5 mps 753 mmHg 88%

    20 December, Friday

    Time Temperature Precipitation Wind Pressure Humidity
    00:00 +25°C° 0.1 mm 5 mps 753 mmHg 88%
    01:00 +25°C° 0.1 mm 5 mps 753 mmHg 89%
    02:00 +25°C° 0.1 mm 5 mps 752 mmHg 90%
    03:00 +25°C° 0.1 mm 4 mps 752 mmHg 90%
    04:00 +23°C° 0.1 mm 4 mps 752 mmHg 91%
    05:00 +25°C° 0.2 mm 4 mps 752 mmHg 88%
    06:00 +26°C° 0.2 mm 4 mps 753 mmHg 84%
    07:00 +26°C° 0.2 mm 4 mps 753 mmHg 80%
    08:00 +28°C° 0.2 mm 4 mps 753 mmHg 74%
    09:00 +29°C° 0.2 mm 5 mps 753 mmHg 68%
    10:00 +32°C° 0.2 mm 5 mps 753 mmHg 61%
    11:00 +32°C° 0.1 mm 5 mps 752 mmHg 59%
    12:00 +33°C° 0.1 mm 6 mps 752 mmHg 57%
    13:00 +33°C° 0.1 mm 6 mps 752 mmHg 55%
    14:00 +33°C° 0 mm 6 mps 751 mmHg 56%
    15:00 +33°C° 0 mm 6 mps 751 mmHg 57%
    16:00 +33°C° 0 mm 6 mps 750 mmHg 57%
    17:00 +30°C° 0 mm 6 mps 751 mmHg 60%
    18:00 +29°C° 0 mm 5 mps 751 mmHg 64%
    19:00 +28°C° 0 mm 5 mps 752 mmHg 67%
    20:00 +27°C° 0 mm 5 mps 752 mmHg 71%
    21:00 +27°C° 0 mm 5 mps 752 mmHg 75%
    22:00 +26°C° 0 mm 5 mps 753 mmHg 79%
    23:00 +26°C° 0 mm 4 mps 752 mmHg 80%

    21 December, Saturday

    Time Temperature Precipitation Wind Pressure Humidity
    00:00 +26°C° 0 mm 4 mps 752 mmHg 81%
    01:00 +26°C° 0 mm 4 mps 752 mmHg 82%
    02:00 +26°C° 0.2 mm 3 mps 752 mmHg 83%
    03:00 +26°C° 0.2 mm 3 mps 752 mmHg 83%
    04:00 +26°C° 0.2 mm 3 mps 751 mmHg 84%
    05:00 +26°C° 0.4 mm 3 mps 752 mmHg 84%
    06:00 +26°C° 0.4 mm 3 mps 752 mmHg 84%
    07:00 +26°C° 0.4 mm 3 mps 753 mmHg 84%
    08:00 +27°C° 0.5 mm 3 mps 752 mmHg 80%
    09:00 +28°C° 0.5 mm 4 mps 752 mmHg 77%
    10:00 +29°C° 0.5 mm 4 mps 752 mmHg 73%
    11:00 +30°C° 0.3 mm 5 mps 752 mmHg 68%
    12:00 +32°C° 0.3 mm 6 mps 751 mmHg 63%
    13:00 +33°C° 0.3 mm 6 mps 751 mmHg 58%
    14:00 +32°C° 0.1 mm 6 mps 751 mmHg 58%
    15:00 +32°C° 0.1 mm 6 mps 750 mmHg 58%
    16:00 +32°C° 0.1 mm 6 mps 750 mmHg 57%
    17:00 +30°C° 0 mm 5 mps 750 mmHg 64%
    18:00 +29°C° 0 mm 5 mps 751 mmHg 70%
    19:00 +27°C° 0 mm 4 mps 751 mmHg 76%
    20:00 +27°C° 0 mm 4 mps 752 mmHg 79%
    21:00 +26°C° 0 mm 4 mps 752 mmHg 81%
    22:00 +26°C° 0 mm 4 mps 752 mmHg 84%
    23:00 +25°C° 0 mm 3 mps 752 mmHg 85%
    Show more